Time,TemperatureF,DewpointF,PressureIn,WindDirection,WindDirectionDegrees,WindSpeedMPH,WindSpeedGustMPH,Humidity,HourlyPrecipIn,Conditions,Clouds,dailyrainin,SoftwareType,DateUTC
2013-05-16 00:02:00,71.0,59.0,29.74,SW,225,0.0,3.0,65,0.00,,,0.00,,2013-05-16 05:02:00,
2013-05-16 00:12:00,71.0,59.0,29.74,SW,225,0.0,3.0,65,0.00,,,0.00,,2013-05-16 05:12:00,
2013-05-16 00:22:00,71.0,59.0,29.73,SW,221,2.0,6.0,67,0.00,,,0.00,,2013-05-16 05:22:00,
2013-05-16 00:32:00,71.0,61.0,29.74,SW,221,2.0,5.0,71,0.00,,,0.00,,2013-05-16 05:32:00,
2013-05-16 00:42:00,71.0,61.0,29.74,SW,221,2.0,5.0,71,0.00,,,0.00,,2013-05-16 05:42:00,
2013-05-16 00:52:00,70.0,61.0,29.74,SW,221,2.0,6.0,74,0.00,,,0.00,,2013-05-16 05:52:00,
2013-05-16 01:01:00,69.0,61.0,29.76,SW,216,0.0,3.0,77,0.00,,,0.00,,2013-05-16 06:01:00,
2013-05-16 01:12:00,69.0,61.0,29.76,SW,216,0.0,3.0,77,0.00,,,0.00,,2013-05-16 06:12:00,
2013-05-16 01:22:00,70.0,61.0,29.78,NNW,329,5.0,14.0,73,0.00,,,0.00,,2013-05-16 06:22:00,
2013-05-16 01:33:00,69.0,59.0,29.76,NW,308,3.0,5.0,71,0.00,,,0.00,,2013-05-16 06:33:00,
2013-05-16 01:43:00,69.0,59.0,29.76,NW,308,3.0,5.0,71,0.00,,,0.00,,2013-05-16 06:43:00,
2013-05-16 01:53:00,69.0,58.0,29.76,NW,304,0.0,3.0,69,0.00,,,0.00,,2013-05-16 06:53:00,
2013-05-16 02:02:00,68.0,58.0,29.76,NW,304,0.0,3.0,71,0.00,,,0.00,,2013-05-16 07:02:00,
2013-05-16 02:12:00,68.0,58.0,29.76,NW,304,0.0,3.0,71,0.00,,,0.00,,2013-05-16 07:12:00,
2013-05-16 02:24:00,67.0,58.0,29.75,NW,304,2.0,3.0,74,0.00,,,0.00,,2013-05-16 07:24:00,
2013-05-16 02:34:00,67.0,59.0,29.75,NW,304,0.0,0.0,75,0.00,,,0.00,,2013-05-16 07:34:00,
2013-05-16 02:44:00,67.0,59.0,29.75,NW,304,0.0,0.0,75,0.00,,,0.00,,2013-05-16 07:44:00,
2013-05-16 02:54:00,67.0,59.0,29.75,NW,304,0.0,0.0,76,0.00,,,0.00,,2013-05-16 07:54:00,
2013-05-16 03:03:00,68.0,61.0,29.75,NW,304,3.0,5.0,77,0.00,,,0.00,,2013-05-16 08:03:00,
2013-05-16 03:13:00,68.0,61.0,29.75,NW,304,3.0,5.0,77,0.00,,,0.00,,2013-05-16 08:13:00,
2013-05-16 03:24:00,67.0,60.0,29.75,NW,304,0.0,1.0,79,0.00,,,0.00,,2013-05-16 08:24:00,
2013-05-16 03:34:00,66.0,60.0,29.75,NW,304,0.0,3.0,81,0.00,,,0.00,,2013-05-16 08:34:00,
2013-05-16 03:44:00,66.0,60.0,29.75,NW,304,0.0,3.0,81,0.00,,,0.00,,2013-05-16 08:44:00,
2013-05-16 03:55:00,66.0,60.0,29.76,NW,304,1.0,4.0,82,0.00,,,0.00,,2013-05-16 08:55:00,
2013-05-16 04:04:00,65.0,59.0,29.76,WSW,237,4.0,6.0,82,0.00,,,0.00,,2013-05-16 09:04:00,
2013-05-16 04:14:00,66.0,59.0,29.76,West,269,3.0,6.0,78,0.00,,,0.00,,2013-05-16 09:14:00,
2013-05-16 04:24:00,66.0,59.0,29.76,West,269,3.0,6.0,78,0.00,,,0.00,,2013-05-16 09:24:00,
2013-05-16 04:35:00,66.0,59.0,29.76,West,276,3.0,6.0,77,0.00,,,0.00,,2013-05-16 09:35:00,
2013-05-16 04:45:00,66.0,59.0,29.76,West,276,3.0,6.0,77,0.00,,,0.00,,2013-05-16 09:45:00,
2013-05-16 04:55:00,66.0,59.0,29.77,WNW,298,0.0,6.0,78,0.00,,,0.00,,2013-05-16 09:55:00,
2013-05-16 05:05:00,65.0,58.0,29.77,NW,311,4.0,6.0,77,0.00,,,0.00,,2013-05-16 10:05:00,
2013-05-16 05:15:00,65.0,56.0,29.77,NW,311,2.0,4.0,74,0.00,,,0.00,,2013-05-16 10:15:00,
2013-05-16 05:24:00,65.0,56.0,29.77,NW,311,2.0,4.0,74,0.00,,,0.00,,2013-05-16 10:24:00,
2013-05-16 05:36:00,66.0,56.0,29.78,NW,311,0.0,5.0,70,0.00,,,0.00,,2013-05-16 10:36:00,
2013-05-16 05:45:00,66.0,56.0,29.78,NW,311,0.0,5.0,70,0.00,,,0.00,,2013-05-16 10:45:00,
2013-05-16 05:56:00,66.0,55.0,29.78,NW,311,0.0,0.0,68,0.00,,,0.00,,2013-05-16 10:56:00,
2013-05-16 06:05:00,66.0,57.0,29.78,NW,311,0.0,0.0,72,0.00,,,0.00,,2013-05-16 11:05:00,
2013-05-16 06:14:00,66.0,57.0,29.78,NW,311,0.0,0.0,72,0.00,,,0.00,,2013-05-16 11:14:00,
2013-05-16 06:25:00,65.0,56.0,29.79,NW,311,0.0,0.0,72,0.00,,,0.00,,2013-05-16 11:25:00,
2013-05-16 06:35:00,64.0,56.0,29.79,NW,311,0.0,5.0,75,0.00,,,0.00,,2013-05-16 11:35:00,
2013-05-16 06:46:00,64.0,56.0,29.79,NW,311,0.0,5.0,75,0.00,,,0.00,,2013-05-16 11:46:00,
2013-05-16 06:57:00,63.0,56.0,29.79,NW,311,0.0,5.0,78,0.00,,,0.00,,2013-05-16 11:57:00,
2013-05-16 07:06:00,63.0,56.0,29.80,NW,311,0.0,4.0,77,0.00,,,0.00,,2013-05-16 12:06:00,
2013-05-16 07:13:00,63.0,56.0,29.80,NW,311,0.0,4.0,77,0.00,,,0.00,,2013-05-16 12:13:00,
2013-05-16 07:23:00,63.0,55.0,29.80,NW,311,0.0,1.0,76,0.00,,,0.00,,2013-05-16 12:23:00,
2013-05-16 07:34:00,63.0,55.0,29.81,NW,311,0.0,1.0,74,0.00,,,0.00,,2013-05-16 12:34:00,
2013-05-16 07:45:00,63.0,55.0,29.81,NW,311,0.0,1.0,74,0.00,,,0.00,,2013-05-16 12:45:00,
2013-05-16 07:53:00,64.0,56.0,29.82,NW,311,3.0,6.0,76,0.00,,,0.00,,2013-05-16 12:53:00,
2013-05-16 08:04:00,64.0,56.0,29.81,NNW,336,0.0,8.0,75,0.00,,,0.00,,2013-05-16 13:04:00,
2013-05-16 08:12:00,64.0,56.0,29.81,NNW,336,0.0,8.0,75,0.00,,,0.00,,2013-05-16 13:12:00,
2013-05-16 08:26:00,65.0,56.0,29.82,NNW,336,3.0,6.0,74,0.00,,,0.00,,2013-05-16 13:26:00,
2013-05-16 08:35:00,65.0,56.0,29.83,NNW,336,3.0,6.0,72,0.00,,,0.00,,2013-05-16 13:35:00,
2013-05-16 08:43:00,65.0,56.0,29.83,NNW,336,3.0,6.0,72,0.00,,,0.00,,2013-05-16 13:43:00,
2013-05-16 08:55:00,66.0,56.0,29.84,NNW,336,1.0,5.0,70,0.00,,,0.00,,2013-05-16 13:55:00,
2013-05-16 09:05:00,66.0,56.0,29.84,NNW,336,0.0,4.0,69,0.00,,,0.00,,2013-05-16 14:05:00,
2013-05-16 09:16:00,66.0,56.0,29.84,NNW,336,0.0,4.0,69,0.00,,,0.00,,2013-05-16 14:16:00,
2013-05-16 09:23:00,67.0,56.0,29.85,NNW,336,0.0,1.0,67,0.00,,,0.00,,2013-05-16 14:23:00,
2013-05-16 09:37:00,68.0,56.0,29.85,NNW,336,0.0,5.0,66,0.00,,,0.00,,2013-05-16 14:37:00,
2013-05-16 09:47:00,68.0,56.0,29.85,NNW,336,0.0,5.0,66,0.00,,,0.00,,2013-05-16 14:47:00,
2013-05-16 09:56:00,69.0,55.0,29.85,NNW,336,0.0,1.0,61,0.00,,,0.00,,2013-05-16 14:56:00,
2013-05-16 10:08:00,70.0,55.0,29.84,NNW,336,2.0,5.0,60,0.00,,,0.00,,2013-05-16 15:08:00,
2013-05-16 10:17:00,70.0,55.0,29.84,NNW,336,2.0,5.0,60,0.00,,,0.00,,2013-05-16 15:17:00,
2013-05-16 10:28:00,70.0,55.0,29.84,NNW,336,2.0,5.0,60,0.00,,,0.00,,2013-05-16 15:28:00,
2013-05-16 10:40:00,74.0,56.0,29.85,NNW,336,2.0,6.0,53,0.00,,,0.00,,2013-05-16 15:40:00,
2013-05-16 10:50:00,75.0,55.0,29.85,NNW,336,0.0,3.0,49,0.00,,,0.00,,2013-05-16 15:50:00,
2013-05-16 11:00:00,75.0,55.0,29.85,NNW,336,0.0,3.0,49,0.00,,,0.00,,2013-05-16 16:00:00,
2013-05-16 11:09:00,76.0,54.0,29.85,NNW,336,0.0,6.0,46,0.00,,,0.00,,2013-05-16 16:09:00,
2013-05-16 11:19:00,76.0,54.0,29.85,NNW,336,0.0,6.0,46,0.00,,,0.00,,2013-05-16 16:19:00,
2013-05-16 11:30:00,77.0,56.0,29.85,NNW,336,0.0,4.0,48,0.00,,,0.00,,2013-05-16 16:30:00,
2013-05-16 11:40:00,78.0,-99.9,29.85,NNW,336,0.0,3.0,43,0.00,,,0.00,,2013-05-16 16:40:00,
2013-05-16 11:50:00,78.0,54.0,29.85,NNW,336,0.0,3.0,43,0.00,,,0.00,,2013-05-16 16:50:00,
2013-05-16 12:00:00,78.0,54.0,29.85,NNW,336,0.0,3.0,43,0.00,,,0.00,,2013-05-16 17:00:00,
2013-05-16 12:10:00,78.0,52.0,29.85,North,5,0.0,2.0,40,0.00,,,0.00,,2013-05-16 17:10:00,
2013-05-16 12:20:00,78.0,52.0,29.85,North,5,0.0,2.0,40,0.00,,,0.00,,2013-05-16 17:20:00,
2013-05-16 12:30:00,79.0,51.0,29.85,North,5,0.0,4.0,38,0.00,,,0.00,,2013-05-16 17:30:00,
2013-05-16 12:40:00,79.0,50.0,29.85,North,5,0.0,4.0,37,0.00,,,0.00,,2013-05-16 17:40:00,
2013-05-16 12:50:00,80.0,-99.9,29.85,North,5,2.0,6.0,37,0.00,,,0.00,,2013-05-16 17:50:00,
2013-05-16 13:00:00,80.0,-99.9,29.85,North,5,2.0,6.0,37,0.00,,,0.00,,2013-05-16 18:00:00,
2013-05-16 13:10:00,81.0,52.0,29.84,ENE,78,1.0,8.0,37,0.00,,,0.00,,2013-05-16 18:10:00,
2013-05-16 13:20:00,81.0,52.0,29.84,ENE,78,1.0,8.0,37,0.00,,,0.00,,2013-05-16 18:20:00,
2013-05-16 13:30:00,-999.0,-99.9,29.84,ENE,76,0.0,5.0,37,0.00,,,0.00,,2013-05-16 18:30:00,
2013-05-16 13:40:00,-999.0,-99.9,29.84,ESE,113,0.0,4.0,36,0.00,,,0.00,,2013-05-16 18:40:00,
2013-05-16 13:50:00,-999.0,-99.9,29.84,ESE,113,0.0,4.0,36,0.00,,,0.00,,2013-05-16 18:50:00,
2013-05-16 14:00:00,-999.0,-99.9,29.83,ESE,113,0.0,2.0,33,0.00,,,0.00,,2013-05-16 19:00:00,
2013-05-16 14:10:00,82.0,53.0,29.83,SE,130,2.0,9.0,37,0.00,,,0.00,,2013-05-16 19:10:00,
2013-05-16 14:20:00,82.0,53.0,29.83,SE,130,2.0,9.0,37,0.00,,,0.00,,2013-05-16 19:20:00,
2013-05-16 14:30:00,83.0,50.0,29.83,SE,131,1.0,8.0,32,0.00,,,0.00,,2013-05-16 19:30:00,
2013-05-16 14:40:00,82.0,-99.9,29.83,ESE,121,7.0,11.0,31,0.00,,,0.00,,2013-05-16 19:40:00,
2013-05-16 14:50:00,-999.0,-99.9,29.83,ESE,121,7.0,11.0,31,0.00,,,0.00,,2013-05-16 19:50:00,
2013-05-16 15:00:00,83.0,-99.9,29.83,ESE,121,5.0,10.0,31,0.00,,,0.00,,2013-05-16 20:00:00,
2013-05-16 15:10:00,-999.0,-99.9,29.83,SW,219,8.0,11.0,28,0.00,,,0.00,,2013-05-16 20:10:00,
2013-05-16 15:20:00,84.0,-99.9,29.82,SE,138,4.0,11.0,28,0.00,,,0.00,,2013-05-16 20:20:00,
2013-05-16 15:30:00,84.0,47.0,29.82,SE,138,4.0,11.0,28,0.00,,,0.00,,2013-05-16 20:30:00,
2013-05-16 15:40:00,-999.0,-99.9,29.81,SW,224,6.0,16.0,31,0.00,,,0.00,,2013-05-16 20:40:00,
2013-05-16 15:50:00,84.0,51.0,29.81,SSE,156,2.0,14.0,32,0.00,,,0.00,,2013-05-16 20:50:00,
2013-05-16 16:00:00,84.0,51.0,29.81,SSE,156,2.0,14.0,32,0.00,,,0.00,,2013-05-16 21:00:00,
2013-05-16 16:10:00,83.0,-99.9,29.80,South,189,11.0,16.0,32,0.00,,,0.00,,2013-05-16 21:10:00,
2013-05-16 16:20:00,83.0,-99.9,29.80,South,189,11.0,16.0,32,0.00,,,0.00,,2013-05-16 21:20:00,
2013-05-16 16:29:00,83.0,52.0,29.81,South,182,4.0,14.0,34,0.00,,,0.00,,2013-05-16 21:29:00,
2013-05-16 16:38:00,83.0,51.0,29.80,SSE,163,3.0,9.0,33,0.00,,,0.00,,2013-05-16 21:38:00,
2013-05-16 16:50:00,83.0,-99.9,29.80,SSE,163,3.0,9.0,33,0.00,,,0.00,,2013-05-16 21:50:00,
2013-05-16 17:00:00,-999.0,-99.9,29.80,SW,228,5.0,9.0,32,0.00,,,0.00,,2013-05-16 22:00:00,
2013-05-16 17:08:00,84.0,51.0,29.80,SSW,211,6.0,12.0,32,0.00,,,0.00,,2013-05-16 22:08:00,
2013-05-16 17:21:00,84.0,51.0,29.80,SSW,211,6.0,12.0,32,0.00,,,0.00,,2013-05-16 22:21:00,
2013-05-16 17:30:00,84.0,52.0,29.80,SW,236,2.0,10.0,33,0.00,,,0.00,,2013-05-16 22:30:00,
2013-05-16 17:40:00,84.0,51.0,29.80,WSW,242,5.0,11.0,32,0.00,,,0.00,,2013-05-16 22:40:00,
2013-05-16 17:50:00,84.0,51.0,29.80,WSW,242,5.0,11.0,32,0.00,,,0.00,,2013-05-16 22:50:00,
2013-05-16 18:00:00,84.0,52.0,29.79,WSW,240,7.0,14.0,33,0.00,,,0.00,,2013-05-16 23:00:00,
2013-05-16 18:06:00,83.0,56.0,29.79,SSW,208,9.0,13.0,40,0.00,,,0.00,,2013-05-16 23:06:00,
2013-05-16 18:16:00,82.0,57.0,29.79,SW,222,13.0,19.0,42,0.00,,,0.00,,2013-05-16 23:16:00,
2013-05-16 18:24:00,82.0,57.0,29.79,SW,222,13.0,19.0,42,0.00,,,0.00,,2013-05-16 23:24:00,
2013-05-16 18:35:00,81.0,57.0,29.80,SW,219,10.0,16.0,44,0.00,,,0.00,,2013-05-16 23:35:00,
2013-05-16 18:45:00,81.0,57.0,29.80,SW,219,10.0,16.0,44,0.00,,,0.00,,2013-05-16 23:45:00,
2013-05-16 18:54:00,80.0,56.0,29.80,SW,217,8.0,13.0,44,0.00,,,0.00,,2013-05-16 23:54:00,
2013-05-16 19:02:00,80.0,57.0,29.80,SSW,209,6.0,11.0,45,0.00,,,0.00,,2013-05-17 00:02:00,
2013-05-16 19:13:00,80.0,57.0,29.80,SSW,209,6.0,11.0,45,0.00,,,0.00,,2013-05-17 00:13:00,
2013-05-16 19:22:00,80.0,56.0,29.81,SW,223,6.0,11.0,44,0.00,,,0.00,,2013-05-17 00:22:00,
2013-05-16 19:33:00,81.0,58.0,29.81,SW,221,6.0,9.0,45,0.00,,,0.00,,2013-05-17 00:33:00,
2013-05-16 19:43:00,81.0,58.0,29.81,SW,221,6.0,9.0,45,0.00,,,0.00,,2013-05-17 00:43:00,
2013-05-16 19:52:00,81.0,57.0,29.82,SSW,213,3.0,8.0,44,0.00,,,0.00,,2013-05-17 00:52:00,
2013-05-16 20:03:00,79.0,58.0,29.82,SSW,205,8.0,14.0,48,0.00,,,0.00,,2013-05-17 01:03:00,
2013-05-16 20:12:00,79.0,58.0,29.82,SSW,205,8.0,14.0,48,0.00,,,0.00,,2013-05-17 01:12:00,
2013-05-16 20:23:00,77.0,56.0,29.83,SSW,212,8.0,12.0,49,0.00,,,0.00,,2013-05-17 01:23:00,
2013-05-16 20:32:00,76.0,57.0,29.83,SSW,213,6.0,10.0,51,0.00,,,0.00,,2013-05-17 01:32:00,
2013-05-16 20:43:00,76.0,57.0,29.83,SSW,213,6.0,10.0,51,0.00,,,0.00,,2013-05-17 01:43:00,
2013-05-16 20:52:00,75.0,56.0,29.83,SSW,205,7.0,10.0,52,0.00,,,0.00,,2013-05-17 01:52:00,
2013-05-16 21:02:00,74.0,56.0,29.84,SSW,206,6.0,10.0,54,0.00,,,0.00,,2013-05-17 02:02:00,
2013-05-16 21:11:00,74.0,56.0,29.84,SSW,206,6.0,10.0,54,0.00,,,0.00,,2013-05-17 02:11:00,
2013-05-16 21:22:00,74.0,58.0,29.84,SSW,205,6.0,8.0,58,0.00,,,0.00,,2013-05-17 02:22:00,
2013-05-16 21:32:00,73.0,59.0,29.84,SSW,205,3.0,9.0,61,0.00,,,0.00,,2013-05-17 02:32:00,
2013-05-16 21:42:00,73.0,59.0,29.84,SSW,205,3.0,9.0,61,0.00,,,0.00,,2013-05-17 02:42:00,
2013-05-16 21:53:00,72.0,59.0,29.85,SSW,205,4.0,6.0,64,0.00,,,0.00,,2013-05-17 02:53:00,
2013-05-16 22:02:00,72.0,60.0,29.85,SSW,205,3.0,5.0,66,0.00,,,0.00,,2013-05-17 03:02:00,
2013-05-16 22:11:00,72.0,60.0,29.85,SSW,205,3.0,5.0,66,0.00,,,0.00,,2013-05-17 03:11:00,
2013-05-16 22:22:00,71.0,59.0,29.86,SSW,199,4.0,7.0,67,0.00,,,0.00,,2013-05-17 03:22:00,
2013-05-16 22:34:00,71.0,60.0,29.86,SSW,196,3.0,7.0,68,0.00,,,0.00,,2013-05-17 03:34:00,
2013-05-16 22:43:00,71.0,60.0,29.86,SSW,196,3.0,7.0,68,0.00,,,0.00,,2013-05-17 03:43:00,
2013-05-16 22:53:00,70.0,59.0,29.87,SSW,196,0.0,5.0,69,0.00,,,0.00,,2013-05-17 03:53:00,
2013-05-16 23:02:00,70.0,59.0,29.87,SSW,196,0.0,5.0,69,0.00,,,0.00,,2013-05-17 04:02:00,
2013-05-16 23:13:00,70.0,59.0,29.87,SSW,196,0.0,5.0,69,0.00,,,0.00,,2013-05-17 04:13:00,
2013-05-16 23:23:00,69.0,60.0,29.87,SSW,196,0.0,4.0,74,0.00,,,0.00,,2013-05-17 04:23:00,
2013-05-16 23:33:00,69.0,60.0,29.88,SSW,196,4.0,6.0,74,0.00,,,0.00,,2013-05-17 04:33:00,
2013-05-16 23:43:00,69.0,60.0,29.88,SSW,196,4.0,6.0,74,0.00,,,0.00,,2013-05-17 04:43:00,
2013-05-16 23:53:00,69.0,60.0,29.88,SSW,196,5.0,7.0,74,0.00,,,0.00,,2013-05-17 04:53:00,